Flag for Canada Weather past 2 weeks in Haldimand, Ontario, Canada

Now
23 °F

Cloudy.


Feels Like: 16 °F
Forecast: 2 / 28 °F
Wind: 6 mph from Southwest

Location: Hamilton Airport

Current Time: Mar 1, 2015 at 4:09:32 PM

Latest Report: Mar 1, 2015 at 3:00 PM


Visibility: 8 mi

Pressure: 30.27 "Hg

Humidity: 74%

Dew point: 16 °F

Location of HaldimandLocation

Historic Weather in Haldimand — Graph

°F

Haldimand temperature yesterday

Maximum temperature yesterday: 19 °F (at 3:00 PM)
Minimum temperature yesterday: -6 °F (at 7:00 AM)
Average temperature yesterday: 6 °F

Past Weeks' High & Low Weather Summary

 TemperatureHumidityPressure
High23 °F (Feb 22, 2:00 PM)93% (Feb 21, 7:00 PM)30.81 "Hg (Feb 21, 7:00 PM)
Low-18 °F (Feb 16, 4:00 AM)30% (Feb 17, 1:00 PM)29.60 "Hg (Feb 14, 2:00 PM)
Average4 °F67%30.20 "Hg
* Reported Feb 14 2:00 PM — Mar 1 2:00 PM, Haldimand, Weather by CustomWeather, © 2015

Note: Actual official high and low records may vary slightly from our data, if they occured in-between our weather recording intervals... More about our weather records

Advertising

Haldimand weather history for previous 24 hours

 ConditionsComfort  
Time TempWeatherWind HumidityBarometerVisibility
2:00 PM
Sun, Mar 1
23 °FLight snow. Mostly cloudy.3 mph74%30.29 "Hg9 mi
1:00 PM21 °FLight snow. Mostly cloudy.6 mph80%30.33 "Hg9 mi
12:00 PM19 °FLight snow. Overcast.2 mph79%30.36 "Hg8 mi
11:00 AM18 °FLight snow. Mostly cloudy.3 mph79%30.40 "Hg5 mi
10:00 AM16 °FLight snow. Mostly cloudy.3 mph79%30.42 "Hg4 mi
9:00 AM12 °FLight snow. More clouds than sun.2 mph85%30.44 "Hg7 mi
8:00 AM10 °FLight snow. Mostly cloudy.No wind85%30.46 "Hg3 mi
7:00 AM10 °FLight snow. Overcast.No wind79%30.47 "Hg2 mi
6:00 AM10 °FLight snow. Overcast.3 mph72%30.50 "Hg15 mi
5:00 AM10 °FOvercast.2 mph72%30.51 "Hg15 mi
4:00 AM10 °FOvercast.2 mph72%30.52 "Hg15 mi
3:00 AM9 °FOvercast.No wind78%30.55 "Hg15 mi
2:00 AM7 °FPassing clouds.2 mph78%30.59 "Hg15 mi
1:00 AM7 °FOvercast.3 mph72%30.59 "Hg15 mi
12:00 AM7 °FPassing clouds.5 mph78%30.63 "Hg15 mi
11:00 PM
Sat, Feb 28
5 °FPassing clouds.3 mph72%30.65 "Hg15 mi
10:00 PM5 °FClear.5 mph66%30.67 "Hg15 mi
9:00 PM9 °FClear.No wind66%30.69 "Hg15 mi
8:00 PM9 °FClear.3 mph66%30.71 "Hg15 mi
7:00 PM9 °FPassing clouds.7 mph61%30.73 "Hg15 mi
6:00 PM14 °FSunny.8 mph57%30.71 "Hg15 mi
5:00 PM16 °FPassing clouds.8 mph57%30.73 "Hg15 mi
4:00 PM18 °FPassing clouds.12 mph58%30.74 "Hg15 mi
Weather by CustomWeather, © 2015

See weather overviewHow to use our weather pages